Location: Caltech
(34.1382°N, 118.1253°W)
Time: 04:14:05
(UTC-07:00)

OPAL - Visible Passes

Search period start: 20 April 2014 00:00
Search period end: 30 April 2014 00:00
Orbit: 745 x 796 km, 100.2° (Epoch: 19 April)

Date Brightness Start Highest point End Pass type
(mag) Time Alt. Az. Time Alt. Az. Time Alt. Az.
20 Apr 9.7 03:07:01 18° NNW 03:07:01 18° NNW 03:08:15 10° NNW visible
21 Apr 9.7 02:31:11 21° N 02:31:11 21° N 02:32:58 10° N visible
22 Apr 10.1 01:55:21 17° NNE 01:55:21 17° NNE 01:56:59 10° NNE visible
22 Apr 9.7 03:35:39 15° NW 03:35:39 15° NW 03:36:32 10° NNW visible
23 Apr 9.4 02:59:49 23° NNW 02:59:49 23° NNW 03:01:43 10° NNW visible
24 Apr 9.6 02:23:59 24° NNE 02:23:59 24° NNE 02:26:16 10° N visible
25 Apr 10.1 01:48:09 16° NE 01:48:09 16° NE 01:50:02 10° NNE visible
25 Apr 9.4 03:28:27 20° NW 03:28:27 20° NW 03:30:07 10° NNW visible
26 Apr 9.1 02:52:37 29° N 02:52:37 29° N 02:55:07 10° N visible
27 Apr 9.5 02:16:47 25° NNE 02:16:47 25° NNE 02:19:32 10° N visible
27 Apr 9.6 03:57:05 14° NW 03:57:05 14° NW 03:58:03 10° NW visible
28 Apr 10.1 01:40:57 14° NE 01:40:57 14° NE 01:42:57 10° NNE visible
28 Apr 9.0 03:21:14 27° NNW 03:21:14 27° NNW 03:23:38 10° NNW visible
29 Apr 8.9 02:45:24 35° N 02:45:24 35° N 02:48:30 10° N visible
